TimeEDT,TemperatureF,Dew PointF,Humidity,Sea Level PressureIn,VisibilityMPH,Wind Direction,Wind SpeedMPH,Gust SpeedMPH,PrecipitationIn,Events,Conditions,WindDirDegrees,DateUTC
12:54 AM,77.0,71.1,82,30.13,8.0,Calm,Calm,-,N/A,,Clear,0,2013-07-19 04:54:00
1:54 AM,77.0,71.1,82,30.12,10.0,Calm,Calm,-,N/A,,Clear,0,2013-07-19 05:54:00
2:54 AM,75.9,71.1,85,30.09,8.0,Calm,Calm,-,N/A,,Clear,0,2013-07-19 06:54:00
3:46 AM,75.2,71.6,89,30.13,4.0,Calm,Calm,-,N/A,,Haze,0,2013-07-19 07:46:00
3:54 AM,75.0,71.1,87,30.09,4.0,Calm,Calm,-,N/A,,Partly Cloudy,0,2013-07-19 07:54:00
4:54 AM,75.9,71.1,85,30.09,4.0,Calm,Calm,-,N/A,,Haze,0,2013-07-19 08:54:00
5:09 AM,75.2,71.6,89,30.12,4.0,Calm,Calm,-,N/A,,Haze,0,2013-07-19 09:09:00
5:17 AM,75.2,71.6,89,30.12,7.0,Calm,Calm,-,N/A,,Mostly Cloudy,0,2013-07-19 09:17:00
5:46 AM,75.2,71.6,89,30.12,1.5,Calm,Calm,-,N/A,,Overcast,0,2013-07-19 09:46:00
5:51 AM,75.2,71.6,89,30.12,0.5,Calm,Calm,-,N/A,Fog,Fog,0,2013-07-19 09:51:00
5:54 AM,75.0,72.0,90,30.09,0.2,Calm,Calm,-,N/A,Fog,Fog,0,2013-07-19 09:54:00
6:54 AM,75.0,72.0,90,30.09,0.2,Calm,Calm,-,N/A,Fog,Fog,0,2013-07-19 10:54:00
7:08 AM,75.2,71.6,89,30.13,0.2,Calm,Calm,-,N/A,Fog,Fog,0,2013-07-19 11:08:00
7:28 AM,73.4,71.6,94,30.13,0.2,Calm,Calm,-,N/A,Fog,Fog,0,2013-07-19 11:28:00
7:36 AM,75.2,71.6,89,30.13,0.2,Calm,Calm,-,N/A,Fog,Fog,0,2013-07-19 11:36:00
7:47 AM,75.2,71.6,89,30.14,1.0,Calm,Calm,-,N/A,,Mist,0,2013-07-19 11:47:00
7:54 AM,75.9,72.0,87,30.11,0.5,Calm,Calm,-,N/A,Fog,Fog,0,2013-07-19 11:54:00
8:37 AM,77.0,73.4,89,30.15,2.0,Calm,Calm,-,N/A,,Overcast,0,2013-07-19 12:37:00
8:47 AM,75.2,73.4,94,30.15,4.0,Calm,Calm,-,N/A,,Overcast,0,2013-07-19 12:47:00
8:54 AM,75.9,72.0,87,30.12,4.0,Calm,Calm,-,N/A,,Overcast,0,2013-07-19 12:54:00
9:11 AM,78.8,71.6,78,30.16,6.0,Calm,Calm,-,N/A,,Haze,0,2013-07-19 13:11:00
9:54 AM,82.0,72.0,71,30.13,10.0,WSW,4.6,-,N/A,,Scattered Clouds,250,2013-07-19 13:54:00
10:54 AM,82.9,72.0,69,30.12,10.0,West,6.9,-,N/A,,Partly Cloudy,260,2013-07-19 14:54:00
11:54 AM,84.9,72.0,65,30.12,10.0,Calm,Calm,-,N/A,,Mostly Cloudy,0,2013-07-19 15:54:00
12:54 PM,88.0,71.1,57,30.09,10.0,Variable,4.6,-,N/A,,Partly Cloudy,0,2013-07-19 16:54:00
1:54 PM,89.1,71.1,55,30.06,10.0,Variable,4.6,-,N/A,,Partly Cloudy,0,2013-07-19 17:54:00
2:54 PM,89.1,71.1,55,30.04,10.0,SSW,5.8,-,N/A,,Partly Cloudy,200,2013-07-19 18:54:00
3:54 PM,89.1,69.1,52,30.03,10.0,Variable,3.5,-,N/A,,Clear,0,2013-07-19 19:54:00
4:54 PM,89.1,71.1,55,30.01,10.0,South,5.8,-,N/A,,Partly Cloudy,190,2013-07-19 20:54:00
5:54 PM,89.1,72.0,57,30.00,10.0,Calm,Calm,-,N/A,,Clear,0,2013-07-19 21:54:00
6:54 PM,88.0,72.0,59,30.00,10.0,South,3.5,-,N/A,,Clear,190,2013-07-19 22:54:00
7:54 PM,84.0,73.0,69,30.00,8.0,Calm,Calm,-,N/A,,Clear,0,2013-07-19 23:54:00
8:54 PM,84.0,72.0,67,30.01,9.0,South,3.5,-,N/A,,Mostly Cloudy,170,2013-07-20 00:54:00
9:54 PM,81.0,72.0,74,30.02,10.0,West,3.5,-,N/A,,Scattered Clouds,270,2013-07-20 01:54:00
10:54 PM,81.0,72.0,74,30.03,10.0,Calm,Calm,-,N/A,,Partly Cloudy,0,2013-07-20 02:54:00
11:54 PM,80.1,71.1,74,30.04,10.0,Calm,Calm,-,N/A,,Mostly Cloudy,0,2013-07-20 03:54:00